DW3212 Weather Reports


time (UTC)temp
C
wind
direction
speed
KPH
gust
KPH
rain 1hr
cm
rain 24hr
cm
rain mn
cm
humidity
%
barometer
mb
20260505230056 15 0.0 0.0 0.00 0.03 0.03 74 1007.9
20260505224557 15 0.0 0.0 0.00 0.03 0.03 76 1008.1
20260505223055 16 0.0 0.0 0.00 0.03 0.03 74 1007.8
20260505221602 18 0.0 0.0 0.00 0.03 0.03 64 1007.1
20260505220057 21 0.0 0.0 0.00 0.03 0.03 40 1006.3
20260505214605 21 0.0 0.0 0.00 0.03 0.03 39 1005.9
20260505213118 22 0.0 0.0 0.00 0.03 0.03 39 1005.9
20260505211556 22 0.0 0.0 0.00 0.03 0.03 38 1005.5
20260505210106 22 0.0 0.0 0.00 0.03 0.03 39 1005.3
20260505204559 22 0.0 0.0 0.00 0.03 0.03 40 1005.2
20260505203057 22 0.0 0.0 0.00 0.03 0.03 39 1005.3
20260505201555 22 0.0 0.0 0.00 0.03 0.03 39 1005.3
20260505200056 22 0.0 0.0 0.00 0.03 0.03 39 1005.4
20260505194600 22 0.0 0.0 0.00 0.03 0.03 39 1005.3
20260505193124 22 0.0 0.0 0.00 0.03 0.03 44 1005.5
20260505191605 21 0.0 0.0 0.00 0.03 0.03 41 1005.6
20260505190055 22 0.0 0.0 0.00 0.03 0.03 42 1005.6
20260505184601 21 0.0 0.0 0.00 0.03 0.03 41 1005.7
20260505183057 22 0.0 0.0 0.00 0.03 0.03 41 1005.8
20260505181557 23 0.0 0.0 0.00 0.03 0.03 39 1005.9
20260505180058 23 0.0 0.0 0.00 0.03 0.03 37 1006.1
20260505174558 23 0.0 0.0 0.00 0.03 0.03 36 1006.5
20260505173054 22 0.0 0.0 0.00 0.03 0.03 38 1006.8
20260505171558 22 0.0 0.0 0.00 0.03 0.03 39 1006.7
20260505170059 22 0.0 0.0 0.00 0.03 0.03 42 1007.0
20260505164558 22 0.0 0.0 0.00 0.03 0.03 41 1006.8
20260505163058 22 0.0 0.0 0.00 0.03 0.03 41 1007.3
20260505161602 22 0.0 0.0 0.00 0.03 0.03 45 1007.5
20260505160110 22 0.0 0.0 0.00 0.03 0.03 45 1007.8
20260505153105 21 0.0 0.0 0.00 0.03 0.03 45 1008.3
20260505151604 20 0.0 0.0 0.00 0.03 0.03 47 1008.2
20260505124603 15 0.0 0.0 0.00 0.03 0.03 65 1008.6
20260505123112 15 0.0 0.0 0.00 0.03 0.03 67 1008.6
20260505121556 15 0.0 0.0 0.03 0.03 0.03 67 1008.5
20260505114558 13 0.0 0.0 0.03 0.03 0.03 68 1008.4
20260505113059 12 0.0 0.0 0.03 0.03 0.03 75 1008.6
20260505111554 13 0.0 0.0 0.00 0.00 0.00 74 1008.7
20260505110106 15 0.0 0.0 0.00 0.00 0.00 57 1008.7
20260505101556 13 0.0 0.0 0.00 0.00 0.00 60 1007.9
20260505100058 12 0.0 0.0 0.00 0.00 0.00 61 1007.7
20260505094557 12 0.0 0.0 0.00 0.00 0.00 63 1007.8
20260505093054 12 0.0 0.0 0.00 0.00 0.00 63 1007.8
20260505091619 12 0.0 0.0 0.00 0.00 0.00 61 1007.7
20260505090120 12 0.0 0.0 0.00 0.00 0.00 61 1007.9
20260505084613 12 0.0 0.0 0.00 0.00 0.00 61 1008.2
20260505083108 12 0.0 0.0 0.00 0.00 0.00 60 1008.2
20260505081603 12 0.0 0.0 0.00 0.00 0.00 60 1008.3
20260505080107 12 0.0 0.0 0.00 0.00 0.00 60 1008.3
20260505074559 12 0.0 0.0 0.00 0.00 0.00 59 1008.2
20260505073101 12 0.0 0.0 0.00 0.00 0.00 58 1008.1
20260505071613 12 0.0 0.0 0.00 0.00 0.00 57 1008.1
20260505070058 12 0.0 0.0 0.00 0.00 0.00 57 1008.1
20260505064605 13 0.0 0.0 0.00 0.00 0.00 55 1008.1
20260505063055 13 0.0 0.0 0.00 0.00 0.00 55 1007.9
20260505061609 13 0.0 0.0 0.00 0.00 0.00 54 1007.9
20260505060104 12 0.0 0.0 0.00 0.00 0.00 55 1008.1
20260505054556 12 0.0 0.0 0.00 0.00 0.00 56 1008.2
20260505053100 12 0.0 0.0 0.00 0.00 0.00 55 1008.3
20260505051553 12 0.0 0.0 0.00 0.00 0.00 56 1008.2
20260505041603 12 0.0 0.0 0.00 0.00 0.00 56 1008.5
20260505034554 12 0.0 0.0 0.00 0.00 0.00 55 1008.5
20260505033057 12 0.0 0.0 0.00 0.00 0.00 56 1008.4
20260505031556 11 0.0 0.0 0.00 0.00 0.00 55 1008.4
20260505030112 11 0.0 0.0 0.00 0.00 0.00 55 1008.4
20260505024559 11 0.0 0.0 0.00 0.00 0.00 55 1008.6
20260505023055 12 0.0 0.0 0.00 0.00 0.00 55 1008.5
20260505021557 11 0.0 0.0 0.00 0.00 0.00 55 1008.5
20260505020100 12 0.0 0.0 0.00 0.00 0.00 54 1008.5
20260505014610 12 0.0 0.0 0.00 0.00 0.00 52 1008.4
20260505013058 12 0.0 0.0 0.00 0.00 0.00 52 1008.3
20260505011557 12 0.0 0.0 0.00 0.00 0.00 50 1008.2
20260505004557 12 0.0 0.0 0.00 0.00 0.00 51 1008.1
20260505003059 13 0.0 0.0 0.00 0.00 0.00 49 1008.0
20260505001601 13 0.0 0.0 0.00 0.00 0.00 48 1007.8
20260504234559 14 0.0 0.0 0.00 0.00 0.00 48 1007.4
20260504233106 15 0.0 0.0 0.00 0.00 0.00 47 1007.3
20260504231602 15 0.0 0.0 0.00 0.00 0.00 44 1006.9